Location: Marion Hill
(40.7303°N, 80.2959°W)
Time: 09:37:11
(UTC+00:00)

Lacrosse 5 - Pass Details

Date: 29 October 2020
Orbit: 716 x 723 km, 57.0° (Epoch: 06 November)

Event Time Altitude Azimuth Distance (km) Brightness Sun altitude
Rises 23:08:24 0° 308° (NW) 3,122 5.8 -9.6°
Reaches altitude 10° 23:12:21 10° 339° (NNW) 2,202 4.5 -10.4°
Maximum altitude 23:14:24 12° 3° (N) 2,047 4.1 -10.8°
Drops below altitude 10° 23:16:28 10° 27° (NNE) 2,203 4.0 -11.2°
Enters shadow 23:17:47 - 40° (NE) 2,443 4.2 -11.4°
